[Iaude] MPEC T245: 2023 TX10 [a=2.29,e=0.54,i=4.2,H=25.7]

mpec at marsden.cfa.harvard.edu mpec at marsden.cfa.harvard.edu
Sat Oct 14 16:12:18 EDT 2023


M.P.E.C. 2023-T245                             Issued 2023 October 14, 20:10 UT

     The Minor Planet Electronic Circulars contain information on unusual
         minor planets, routine data on comets and natural satellites,
         and occasional editorial announcements.  They are published
    on behalf of Division F of the International Astronomical Union by the
          Minor Planet Center, Smithsonian Astrophysical Observatory,
                          Cambridge, MA 02138, U.S.A.
			  
             Prepared using the Tamkin Foundation Computer Network

                              MPC at CFA.HARVARD.EDU
            URL https://www.minorplanetcenter.net/    ISSN 1523-6714

                                   2023 TX10                                    


Observations:
     K23T10X  C2023 10 08.40815123 25 20.944+07 53 53.47         21.63GVET245F51
     K23T10X  C2023 10 08.41950423 25 22.498+07 54 58.19         21.57GVET245F51
     K23T10X  C2023 10 08.43081023 25 24.090+07 56 03.34         20.81GVET245F51
     K23T10X  C2023 10 09.30853023 28 07.511+09 22 28.86         21.03GVET245F52
     K23T10X  C2023 10 09.33336223 28 11.272+09 24 59.90         21.01GVET245F52
     K23T10X* C2023 10 13.25343923 42 47.158+16 41 13.19         21.15wXET245F52
     K23T10X  C2023 10 13.26512023 42 49.780+16 42 39.50         21.30wXET245F52
     K23T10X  C2023 10 13.27676523 42 52.424+16 44 05.87         21.08wXET245F52
     K23T10X  C2023 10 13.38651723 43 16.664+16 57 32.07               VET245F52
     K23T10X  C2023 10 13.38715323 43 16.782+16 57 36.50               VET245F52
     K23T10X KC2023 10 13.84820123 45 23.36 +17 53 43.4          20.6 GVET245598
     K23T10X KC2023 10 13.85176823 45 24.24 +17 54 10.5          22.0 GVET245598
     K23T10X KC2023 10 13.85585123 45 25.19 +17 54 41.4          22.6 GVET245598
     K23T10X KC2023 10 14.30463 23 47 26.46 +18 51 19.6          21.8 RVET245291
     K23T10X KC2023 10 14.30836 23 47 27.38 +18 51 47.8          20.9 RVET245291
     K23T10X KC2023 10 14.31207 23 47 28.32 +18 52 15.6          21.4 RVET245291

Observer details:
291 LPL/Spacewatch II.  Observer T. H. Bressi.  1.8-m f/2.7 reflector + CCD.
598 Loiano.  Observer A. Carbognani.  1.52-m f/4.7 Reflector + CCD.
F51 Pan-STARRS 1, Haleakala.  Observers J. Bulger, T. Lowe, P. Minguez, A.
    Schultz, I. Smith.  Measurers K. Chambers, T. de Boer, J. Fairlamb, H.
    Gao, M. Huber, C.-C. Lin, E. Magnier, Y. Ramanjooloo, R. Wainscoat, R.
    Weryk.  1.8-m Ritchey-Chretien + CCD.
F52 Pan-STARRS 2, Haleakala.  Observers J. Bulger, T. Lowe, P. Minguez, A.
    Schultz, I. Smith.  Measurers K. Chambers, T. de Boer, J. Fairlamb, H.
    Gao, M. Huber, C.-C. Lin, E. Magnier, Y. Ramanjooloo, R. Wainscoat, R.
    Weryk.  1.8-m Ritchey-Chretien + CCD.

Orbital elements:
2023 TX10                                                Earth MOID = 0.0726 AU
Epoch 2023 Sept. 13.0 TT = JDT 2460200.5                Veres                   
M 346.72417              (2000.0)            P               Q                  
n   0.28463623     Peri.   35.99057     +0.80450709     -0.59394277             
a   2.2888075      Node     0.44796     +0.52624496     +0.71235842             
e   0.5389412      Incl.    4.22836     +0.27538079     +0.37386825             
P   3.46           H   25.70          G   0.15           U   9                  
Residuals in seconds of arc
231008 F51  0.1+  0.2+    231013 F52  0.4-  0.5-    231013 598  0.2-  0.3+
231008 F51  0.2-  0.2-    231013 F52  0.0   0.2-    231014 291  0.1-  0.1+
231008 F51  0.0   0.1+    231013 F52  0.6+  0.4-    231014 291  0.2-  0.3+
231009 F52  0.0   0.1-    231013 F52  0.3+  0.6-    231014 291  0.2+  0.2+
231009 F52  0.1+  0.1+    231013 598  0.0   0.3-
231013 F52  0.1-  0.4-    231013 598  0.2+  0.0

Ephemeris:
2023 TX10                a,e,i = 2.29, 0.54, 4                   q = 1.0553
Date    TT    R. A. (2000) Decl.     Delta      r    Elong.  Phase     V
2023 09 14    22 57 00.4 -12 29 02   0.1868  1.1899   168.8     9.5    23.1
...
2023 09 29    23 06 38.2 -03 41 26   0.1234  1.1193   160.9    17.0    22.3
...
2023 10 07    23 21 31.2 +05 44 06   0.09755 1.0910   158.4    19.7    21.8
...
2023 10 13    23 41 37.2 +16 10 45   0.08310 1.0748   156.6    21.6    21.5
2023 10 14    23 46 03.3 +18 13 22   0.08122 1.0725   156.2    22.0    21.5
2023 10 15    23 50 52.3 +20 20 41   0.07951 1.0704   155.7    22.5    21.4
...
2023 10 21    00 29 32.4 +34 08 59   0.07329 1.0606   151.3    26.8    21.4
...
2023 10 29    01 54 27.5 +50 32 03   0.07655 1.0553   142.5    35.0    21.7
...
2023 11 13    04 58 53.7 +57 46 48   0.1088  1.0698   135.2    40.7    22.6

M. P. C. Staff               (C) Copyright 2023 MPC           M.P.E.C. 2023-T245





More information about the Iaude mailing list